This is the latest recevied weather packets stored in our database for station/object DG1GMY-13. If no packets are shown the sender has not sent any weather packets the latest 10 day(s).
| Time | Temp. | Humidity | Pressure | Rain* | Wind** | Luminosity | Snow |
|---|---|---|---|---|---|---|---|
| 1787708474 | 15° C | 100% | 1017 hPa | - | - | - | - |
| 1787706668 | 15° C | 100% | 1016.7 hPa | - | - | - | - |
| 1787704862 | 15° C | 100% | 1016.6 hPa | - | - | - | - |
| 1787703057 | 14.44° C | 100% | 1016.7 hPa | - | - | - | - |
| 1787701251 | 14.44° C | 100% | 1016.8 hPa | - | - | - | - |
| 1787699445 | 14.44° C | 100% | 1016.7 hPa | - | - | - | - |
| 1787697639 | 14.44° C | 100% | 1016.5 hPa | - | - | - | - |
| 1787695833 | 14.44° C | 100% | 1016.5 hPa | - | - | - | - |
| 1787694027 | 14.44° C | 100% | 1016.4 hPa | - | - | - | - |
| 1787692220 | 14.44° C | 100% | 1016.3 hPa | - | - | - | - |
| 1787690414 | 15° C | 100% | 1016.2 hPa | - | - | - | - |
| 1787688608 | 15° C | 100% | 1016 hPa | - | - | - | - |
| 1787686802 | 15.56° C | 100% | 1016.4 hPa | - | - | - | - |
| 1787684996 | 15.56° C | 100% | 1016.2 hPa | - | - | - | - |
| 1787683190 | 15.56° C | 100% | 1015.5 hPa | - | - | - | - |
| 1787681384 | 15.56° C | 100% | 1015.3 hPa | - | - | - | - |
| 1787679578 | 16.11° C | 100% | 1015.3 hPa | - | - | - | - |
| 1787677772 | 16.67° C | 100% | 1015.1 hPa | - | - | - | - |
| 1787675967 | 16.67° C | 100% | 1015.1 hPa | - | - | - | - |
| 1787674160 | 17.22° C | 100% | 1015.1 hPa | - | - | - | - |
| 1787672354 | 17.22° C | 100% | 1015.1 hPa | - | - | - | - |
| 1787670548 | 17.22° C | 100% | 1015.2 hPa | - | - | - | - |
| 1787668742 | 17.22° C | 91% | 1015.1 hPa | - | - | - | - |
| 1787666937 | 17.78° C | 84% | 1015 hPa | - | - | - | - |
| 1787665131 | 18.33° C | 82% | 1014.9 hPa | - | - | - | - |
* Rain since midnight (hover to see other rain measurements)
** Current wind speed in m/s (hover to see current wind gust speed)